Weather History for Albuquerque, NM

Change the Weather History Date:

Saturday, October 27, 2012

  Actual Average Record
Temperature  
Mean Temperature 46 °F 53 °F  
Max Temperature 59 °F 65 °F 80 °F (1952)
Min Temperature 32 °F 42 °F 21 °F (1913)
Degree Days  
Heating Degree Days 19 12  
Month to date heating degree days 109 190  
Since 1 July heating degree days 117 216  
Cooling Degree Days 0 0  
Month to date cooling degree days 25 7  
Year to date cooling degree days 1768 1319  
Moisture  
Dew Point 18 °F    
Average Humidity 38    
Maximum Humidity 56    
Minimum Humidity 19    
Precipitation  
Precipitation 0.00 in 0.03 in 0.62 in (1998)
Month to date precipitation T 0.93  
Year to date precipitation 5.23 8.29  
Snow  
Snow 0.00 in - - ()
Month to date snowfall 0.0  
Since 1 July snowfall 0.0  
Since 1 September snowfall 0.0  
Snow Depth 0.00 in    
Sea Level Pressure  
Sea Level Pressure 30.15 in    
Wind  
Wind Speed 4 mph (North)    
Max Wind Speed 12 mph    
Max Gust Speed 14 mph    
Visibility 10 miles    
Events      
T = Trace of Precipitation, MM = Missing Value Source: NWS Daily Summary

Daily Weather History Graph

Daily Weather History Graph

Search for Another Location

Airport:

Trip Planner

Search our weather history database for the weather conditions in past years. The results will help you decide how hot, cold, wet, or windy it might be!

Date:

Astronomy

Oct. 27, 2012 Rise Set
Actual Time 7:23 AM MDT 6:16 PM MDT
Civil Twilight 6:57 AM MDT 6:42 PM MDT
Nautical Twilight 6:27 AM MDT 7:12 PM MDT
Astronomical Twilight 5:58 AM MDT 7:41 PM MDT
Moon 5:01 PM MDT 5:24 AM MDT
Length of Visible Light 11h 45m
Length of Day
10h 53m
Waxing Gibbous, 96% of the Moon is Illuminated
Oct 27
Waxing Gibbous
Oct 29
Full
Nov 6
Last Quarter
Nov 13
New
Nov 20
First Quarter

Hourly Weather History & Observations

Time (MDT) Temp. Windchill Dew Point Humidity Pressure Visibility Wind Dir Wind Speed Gust Speed Precip Events Conditions
12:52 AM 41.0 °F 37.1 °F 19.9 °F 43% 30.20 in 10.0 mi NNE 5.8 mph - N/A   Clear
1:52 AM 39.0 °F 33.4 °F 19.9 °F 46% 30.19 in 10.0 mi NNE 8.1 mph - N/A   Scattered Clouds
2:52 AM 37.9 °F 33.5 °F 19.9 °F 48% 30.18 in 10.0 mi North 5.8 mph - N/A   Scattered Clouds
3:52 AM 37.0 °F 31.6 °F 19.9 °F 50% 30.17 in 10.0 mi NNW 6.9 mph - N/A   Partly Cloudy
4:52 AM 35.1 °F 27.4 °F 19.9 °F 54% 30.17 in 10.0 mi North 10.4 mph - N/A   Clear
5:52 AM 33.1 °F 26.1 °F 19.9 °F 59% 30.19 in 10.0 mi North 8.1 mph - N/A   Clear
6:52 AM 33.1 °F 26.9 °F 19.9 °F 59% 30.22 in 10.0 mi North 6.9 mph - N/A   Partly Cloudy
7:52 AM 33.1 °F 27.7 °F 19.0 °F 56% 30.23 in 10.0 mi North 5.8 mph - N/A   Partly Cloudy
8:52 AM 36.0 °F - 19.9 °F 52% 30.25 in 10.0 mi Calm Calm - N/A   Partly Cloudy
9:52 AM 39.0 °F - 19.9 °F 46% 30.23 in 10.0 mi Calm Calm - N/A   Partly Cloudy
10:52 AM 44.1 °F - 21.0 °F 40% 30.20 in 10.0 mi Calm Calm - N/A   Partly Cloudy
11:52 AM 46.9 °F - 21.0 °F 36% 30.17 in 10.0 mi SSE 4.6 mph - N/A   Partly Cloudy
12:52 PM 50.0 °F - 21.0 °F 32% 30.13 in 10.0 mi WSW 4.6 mph - N/A   Partly Cloudy
1:52 PM 52.0 °F - 21.0 °F 30% 30.09 in 10.0 mi WNW 4.6 mph - N/A   Clear
2:52 PM 55.0 °F - 18.0 °F 23% 30.06 in 10.0 mi Calm Calm - N/A   Clear
3:52 PM 57.0 °F - 16.0 °F 20% 30.04 in 10.0 mi Calm Calm - N/A   Partly Cloudy
4:52 PM 57.9 °F - 16.0 °F 19% 30.04 in 10.0 mi Calm Calm - N/A   Scattered Clouds
5:52 PM 57.0 °F - 16.0 °F 20% 30.05 in 10.0 mi South 3.5 mph - N/A   Scattered Clouds
6:52 PM 55.0 °F - 17.1 °F 23% 30.08 in 10.0 mi South 3.5 mph - N/A   Scattered Clouds
7:52 PM 54.0 °F - 17.1 °F 23% 30.11 in 10.0 mi Calm Calm - N/A   Partly Cloudy
8:52 PM 48.0 °F - 14.0 °F 26% 30.13 in 10.0 mi ESE 4.6 mph - N/A   Partly Cloudy
9:52 PM 46.9 °F - 15.1 °F 28% 30.14 in 10.0 mi Calm Calm - N/A   Scattered Clouds
10:52 PM 48.0 °F - 15.1 °F 27% 30.14 in 10.0 mi SE 3.5 mph - N/A   Scattered Clouds
11:52 PM 50.0 °F - 15.1 °F 25% 30.11 in 10.0 mi North 3.5 mph - N/A   Partly Cloudy